This is the latest recevied weather packets stored in our database for station/object KF7ROW. If no packets are shown the sender has not sent any weather packets the latest 10 day(s).
| Time | Temp. | Humidity | Pressure | Rain* | Wind** | Luminosity | Snow |
|---|---|---|---|---|---|---|---|
| 1777867470 | 11.67° C | 98% | 1015.8 hPa | 0 mm | - | 0 W/m² | - |
| 1777867166 | 11.67° C | 98% | 1015.5 hPa | 0 mm | - | 0 W/m² | - |
| 1777866863 | 11.67° C | 97% | 1015.7 hPa | 0 mm | - | 0 W/m² | - |
| 1777866560 | 11.67° C | 97% | 1015.4 hPa | 0 mm | - | 0 W/m² | - |
| 1777866258 | 11.67° C | 97% | 1015.4 hPa | 0 mm | - | 0 W/m² | - |
| 1777865954 | 11.67° C | 97% | 1015.5 hPa | 0 mm | - | 0 W/m² | - |
| 1777865652 | 11.67° C | 97% | 1015.3 hPa | 0 mm | - | 0 W/m² | - |
| 1777865349 | 11.67° C | 97% | 1015.1 hPa | 0 mm | - | 1 W/m² | - |
| 1777865046 | 11.67° C | 97% | 1015.1 hPa | 0 mm | - | 1 W/m² | - |
| 1777864742 | 11.67° C | 97% | 1015.1 hPa | 0 mm | - | 2 W/m² | - |
| 1777864439 | 11.67° C | 97% | 1015.2 hPa | 0 mm | - | 3 W/m² | - |
| 1777864135 | 12.22° C | 96% | 1015 hPa | 0 mm | - | 5 W/m² | - |
| 1777863833 | 12.22° C | 96% | 1015 hPa | 0 mm | - | 7 W/m² | - |
| 1777863529 | 12.22° C | 95% | 1014.8 hPa | 0 mm | - | 10 W/m² | - |
| 1777863226 | 12.22° C | 94% | 1014.9 hPa | 0 mm | - | 15 W/m² | - |
| 1777862923 | 12.22° C | 93% | 1014.7 hPa | 0 mm | - | 18 W/m² | - |
| 1777862619 | 12.22° C | 93% | 1014.7 hPa | 0 mm | - | 25 W/m² | - |
| 1777862316 | 12.78° C | 92% | 1014.6 hPa | 0 mm | - | 28 W/m² | - |
| 1777862013 | 12.78° C | 91% | 1014.4 hPa | 0 mm | - | 31 W/m² | - |
| 1777861708 | 13.33° C | 90% | 1014.4 hPa | 0 mm | - | 34 W/m² | - |
| 1777861406 | 13.33° C | 89% | 1014.3 hPa | 0 mm | - | 38 W/m² | - |
| 1777861102 | 13.89° C | 88% | 1014.3 hPa | 0 mm | - | 41 W/m² | - |
| 1777860800 | 13.89° C | 88% | 1014.5 hPa | 0 mm | - | 46 W/m² | - |
| 1777860497 | 14.44° C | 85% | 1014.1 hPa | 0 mm | - | 51 W/m² | - |
| 1777860193 | 15.56° C | 84% | 1014.1 hPa | 0 mm | - | 57 W/m² | - |
* Rain latest hour (hover to see other rain measurements)
** Current wind speed in m/s (hover to see current wind gust speed)